![]() |
EMODnet Physics ERDDAP
Easier access to scientific data |
log in|
Brought to you by EMODnet Physics |
| Dataset Title: | NDBC - Collection of dew point temperature (DEWT) TimeSeries - IN SITU MultiPointTimeSeriesObservation
|
| Institution: | NDBC (Dataset ID: TS_DEWT_NDBC) |
| Information: | Summary
| License
| FGDC
| ISO 19115
| Metadata
| Background
| Subset
| Data Access Form
| Make a graph
|
| Name | Last modified | Size | Description | |
|---|---|---|---|---|
| Parent Directory | - | - | ||
| 44069_TS_DEWT_012020.nc | 30-Oct-2024 07:02 | 1472967 | ||
| 44069_TS_DEWT_012022.nc | 30-Oct-2024 07:52 | 1469327 | ||
| 44069_TS_DEWT_012024.nc | 20-Jan-2025 09:37 | 1468393 | ||
| 44069_TS_DEWT_022017.nc | 30-Oct-2024 05:09 | 1464263 | ||
| 44069_TS_DEWT_022024.nc | 20-Jan-2025 09:37 | 1469595 | ||
| 44069_TS_DEWT_042016.nc | 30-Oct-2024 04:27 | 1151516 | ||
| 44069_TS_DEWT_042017.nc | 30-Oct-2024 05:14 | 606853 | ||
| 44069_TS_DEWT_042021.nc | 30-Oct-2024 07:31 | 1626835 | ||
| 44069_TS_DEWT_052016.nc | 30-Oct-2024 04:31 | 1467143 | ||
| 44069_TS_DEWT_052017.nc | 30-Oct-2024 05:19 | 1463476 | ||
| 44069_TS_DEWT_052019.nc | 30-Oct-2024 06:29 | 1476810 | ||
| 44069_TS_DEWT_052021.nc | 30-Oct-2024 07:35 | 1473378 | ||
| 44069_TS_DEWT_052022.nc | 30-Oct-2024 07:56 | 1466622 | ||
| 44069_TS_DEWT_052023.nc | 30-Oct-2024 08:29 | 1465809 | ||
| 44069_TS_DEWT_062016.nc | 30-Oct-2024 04:36 | 1626058 | ||
| 44069_TS_DEWT_062017.nc | 30-Oct-2024 05:24 | 1459031 | ||
| 44069_TS_DEWT_062018.nc | 30-Oct-2024 05:55 | 1465608 | ||
| 44069_TS_DEWT_062019.nc | 30-Oct-2024 06:33 | 1476786 | ||
| 44069_TS_DEWT_062021.nc | 30-Oct-2024 07:39 | 1473883 | ||
| 44069_TS_DEWT_062022.nc | 30-Oct-2024 08:02 | 1470913 | ||
| 44069_TS_DEWT_062023.nc | 30-Oct-2024 08:33 | 1466462 | ||
| 44069_TS_DEWT_072016.nc | 30-Oct-2024 04:41 | 1626500 | ||
| 44069_TS_DEWT_072017.nc | 30-Oct-2024 05:28 | 1477204 | ||
| 44069_TS_DEWT_072018.nc | 30-Oct-2024 06:00 | 1475335 | ||
| 44069_TS_DEWT_072019.nc | 30-Oct-2024 06:38 | 1470879 | ||
| 44069_TS_DEWT_072020.nc | 30-Oct-2024 07:06 | 1626831 | ||
| 44069_TS_DEWT_072022.nc | 30-Oct-2024 08:06 | 1477414 | ||
| 44069_TS_DEWT_072023.nc | 30-Oct-2024 08:38 | 1469715 | ||
| 44069_TS_DEWT_082016.nc | 30-Oct-2024 04:46 | 1465583 | ||
| 44069_TS_DEWT_082017.nc | 30-Oct-2024 05:33 | 1472733 | ||
| 44069_TS_DEWT_082018.nc | 30-Oct-2024 06:05 | 1161358 | ||
| 44069_TS_DEWT_082019.nc | 30-Oct-2024 06:42 | 1474042 | ||
| 44069_TS_DEWT_082020.nc | 30-Oct-2024 07:10 | 1160797 | ||
| 44069_TS_DEWT_082022.nc | 30-Oct-2024 08:10 | 1626826 | ||
| 44069_TS_DEWT_082023.nc | 30-Oct-2024 08:44 | 994153 | ||
| 44069_TS_DEWT_092016.nc | 30-Oct-2024 04:52 | 1474653 | ||
| 44069_TS_DEWT_092017.nc | 30-Oct-2024 05:37 | 1472052 | ||
| 44069_TS_DEWT_092018.nc | 30-Oct-2024 06:10 | 1458432 | ||
| 44069_TS_DEWT_092019.nc | 30-Oct-2024 06:46 | 1476974 | ||
| 44069_TS_DEWT_092020.nc | 30-Oct-2024 07:14 | 1146591 | ||
| 44069_TS_DEWT_092022.nc | 30-Oct-2024 08:14 | 1625414 | ||
| 44069_TS_DEWT_092023.nc | 30-Oct-2024 08:49 | 1626443 | ||
| 44069_TS_DEWT_102016.nc | 30-Oct-2024 04:56 | 1626963 | ||
| 44069_TS_DEWT_102017.nc | 30-Oct-2024 05:42 | 1625071 | ||
| 44069_TS_DEWT_102018.nc | 30-Oct-2024 06:14 | 1143003 | ||
| 44069_TS_DEWT_102019.nc | 30-Oct-2024 06:50 | 429165 | ||
| 44069_TS_DEWT_102020.nc | 30-Oct-2024 07:19 | 429840 | ||
| 44069_TS_DEWT_102022.nc | 30-Oct-2024 08:17 | 429634 | ||
| 44069_TS_DEWT_102023.nc | 30-Oct-2024 08:53 | 602060 | ||
| 44069_TS_DEWT_112016.nc | 30-Oct-2024 05:00 | 1470647 | ||
| 44069_TS_DEWT_112017.nc | 30-Oct-2024 05:47 | 1474173 | ||
| 44069_TS_DEWT_112018.nc | 30-Oct-2024 06:19 | 1469577 | ||
| 44069_TS_DEWT_112019.nc | 30-Oct-2024 06:54 | 1475852 | ||
| 44069_TS_DEWT_112020.nc | 30-Oct-2024 07:23 | 1625711 | ||
| 44069_TS_DEWT_112021.nc | 30-Oct-2024 07:43 | 1466041 | ||
| 44069_TS_DEWT_112022.nc | 30-Oct-2024 08:22 | 1625935 | ||
| 44069_TS_DEWT_112023.nc | 30-Oct-2024 08:58 | 1625710 | ||
| 44069_TS_DEWT_122016.nc | 30-Oct-2024 05:05 | 1626746 | ||
| 44069_TS_DEWT_122017.nc | 30-Oct-2024 05:51 | 1626532 | ||
| 44069_TS_DEWT_122018.nc | 30-Oct-2024 06:24 | 1624796 | ||
| 44069_TS_DEWT_122019.nc | 30-Oct-2024 06:58 | 1469961 | ||
| 44069_TS_DEWT_122020.nc | 30-Oct-2024 07:27 | 1461152 | ||
| 44069_TS_DEWT_122021.nc | 30-Oct-2024 07:48 | 1476080 | ||
| 44069_TS_DEWT_122022.nc | 30-Oct-2024 08:26 | 1626663 | ||
| 44069_TS_DEWT_122023.nc | 30-Oct-2024 09:03 | 428403 | ||